Terminal Aerodrome Forecast
Issued by NWS

Home | Current Version | Previous Version | Text Only | Print | Product List | Glossary On
Versions: 1 2 3 4 5 6 7 8 9 10 11 12 13 14 15
232
FTUS44 KLZK 270535
TAFHOT
TAF
KHOT 270535Z 2706/2806 31007KT P6SM OVC015
      TEMPO 2709/2712 5SM BR BKN008
     FM271400 17006KT P6SM SCT030 SCT250
     FM272100 17007KT P6SM SCT250
     FM280000 16007KT P6SM SCT100 BKN250=

USA.gov is the U.S. government's official web portal to all federal, state and local government web resources and services.